De Queen, AR

7:28 PM CDT on March 29, 2020 (GMT -0500)
Helms Sevier County

Weather History for KDEQ - October, 2019

Change the Weather History Date:

Tuesday, October 15, 2019

  Actual Average Record
Temperature  
Mean Temperature 68 °F -  
Max Temperature 72 °F - 96 °F (2015)
Min Temperature 64 °F - 34 °F (1955)
Cooling Degree Days 3    
Growing Degree Days 18 (Base 50)    
Moisture  
Dew Point 66 °F    
Average Humidity 91    
Maximum Humidity 94    
Minimum Humidity 81    
Precipitation  
Precipitation 0.13 in - 2.64 in (1984)
Sea Level Pressure  
Sea Level Pressure 29.89 in    
Wind  
Wind Speed 4 mph ()    
Max Wind Speed 9 mph    
Max Gust Speed -    
Visibility 4.1 miles    
Events Rain , Thunderstorm    
T = Trace of Precipitation, MM = Missing Value Source: Averaged Metar Reports

Daily Weather History Graph

Daily Weather History Graph

Search for Another Location

Airport or City:

Astronomy

Oct. 15, 2019 Rise Set
Actual Time 7:22 AM CDT 6:43 PM CDT
Civil Twilight 6:57 AM CDT 7:08 PM CDT
Nautical Twilight 6:28 AM CDT 7:37 PM CDT
Astronomical Twilight 5:59 AM CDT 8:06 PM CDT
Moon 8:07 PM CDT (10/15) 8:51 AM CDT (10/15)
Length of Visible Light 12h 11m
Length of Day
11h 21m
Full, 97% of the Moon is Illuminated
Oct 15
Full
Oct 21
Last Quarter
Oct 27
New
Nov 4
First Quarter
Nov 12
Full

Hourly Weather History & Observations

Time (CDT) Temp. Dew Point Humidity Pressure Visibility Wind Dir Wind Speed Gust Speed Precip Events Conditions
3:31 AM 64.9 °F 63.0 °F 93% 29.94 in 5.0 mi ENE 4.6 mph - 0.00 in Rain Light Rain
3:53 AM 64.9 °F 63.0 °F 93% 29.91 in 4.0 mi ENE 5.8 mph - 0.00 in Rain Light Rain
4:53 AM 64.9 °F 63.0 °F 93% 29.91 in 4.0 mi East 4.6 mph - 0.00 in   Overcast
5:53 AM 64.9 °F 63.0 °F 93% 29.91 in 4.0 mi East 5.8 mph - 0.01 in Rain Heavy Rain
6:42 AM 64.9 °F 63.0 °F 93% 29.92 in 2.0 mi ENE 4.6 mph - 0.00 in   Overcast
6:53 AM 64.9 °F 63.0 °F 93% 29.91 in 2.5 mi East 4.6 mph - 0.00 in Rain , Thunderstorm Light Thunderstorms and Rain
7:03 AM 64.9 °F 63.0 °F 93% 29.93 in 1.5 mi NE 4.6 mph - 0.09 in Rain Heavy Rain
7:11 AM 64.9 °F 63.0 °F 93% 29.91 in 2.5 mi East 6.9 mph - 0.10 in Rain , Thunderstorm Heavy Rain
7:14 AM 64.9 °F 63.0 °F 93% 29.92 in 3.0 mi ESE 8.1 mph - 0.10 in Rain , Thunderstorm Light Rain
7:21 AM 64.9 °F 63.0 °F 93% 29.91 in 3.0 mi ESE 6.9 mph - 0.12 in Rain , Thunderstorm Rain
7:31 AM 64.9 °F 63.0 °F 93% 29.91 in 6.0 mi ENE 4.6 mph - 0.12 in Rain Light Rain
7:44 AM 64.9 °F 63.0 °F 93% 29.90 in 8.0 mi East 8.1 mph - 0.12 in Rain Light Rain
7:53 AM 66.0 °F 63.0 °F 90% 29.90 in 10.0 mi ESE 4.6 mph - 0.12 in   Overcast
8:31 AM 66.0 °F 64.0 °F 93% 29.91 in 1.8 mi ESE 5.8 mph - N/A   Overcast
8:53 AM 66.0 °F 64.0 °F 93% 29.91 in 1.5 mi East 3.5 mph - N/A   Overcast
9:08 AM 66.0 °F 64.0 °F 93% 29.92 in 1.5 mi Calm Calm - N/A   Overcast
9:53 AM 66.9 °F 64.9 °F 93% 29.91 in 0.8 mi Calm Calm - 0.00 in Rain Light Rain
10:04 AM 66.9 °F 64.9 °F 93% 29.92 in 1.0 mi ENE 4.6 mph - 0.00 in   Overcast
10:53 AM 66.9 °F 64.9 °F 93% 29.91 in 1.2 mi ENE 4.6 mph - 0.00 in   Overcast
11:34 AM 68.0 °F 64.9 °F 90% 29.91 in 3.0 mi ENE 4.6 mph - 0.00 in   Overcast
11:53 AM 68.0 °F 66.0 °F 93% 29.89 in 2.5 mi East 4.6 mph - 0.00 in   Overcast
12:06 PM 68.0 °F 66.0 °F 93% 29.90 in 3.0 mi East 5.8 mph - N/A   Overcast
12:53 PM 69.1 °F 66.0 °F 90% 29.88 in 4.0 mi East 3.5 mph - N/A   Overcast
1:35 PM 69.1 °F 66.9 °F 93% 29.87 in 2.5 mi East 4.6 mph - N/A   Overcast
1:53 PM 70.0 °F 66.9 °F 90% 29.85 in 3.0 mi East 3.5 mph - N/A   Overcast
2:15 PM 70.0 °F 68.0 °F 93% 29.86 in 2.5 mi ENE 3.5 mph - N/A   Overcast
2:53 PM 71.1 °F 68.0 °F 90% 29.83 in 3.0 mi East 4.6 mph - N/A   Overcast
3:20 PM 71.1 °F 68.0 °F 90% 29.83 in 2.5 mi ENE 4.6 mph - N/A   Overcast
3:53 PM 71.1 °F 69.1 °F 93% 29.81 in 1.5 mi NE 5.8 mph - N/A   Overcast
4:38 PM 71.1 °F 69.1 °F 93% 29.83 in 2.0 mi ENE 5.8 mph - N/A   Overcast
4:53 PM 71.1 °F 69.1 °F 93% 29.81 in 2.5 mi ENE 3.5 mph - N/A   Overcast
5:18 PM 72.0 °F 69.1 °F 91% 29.82 in 3.0 mi NE 4.6 mph - N/A   Overcast
5:41 PM 72.0 °F 69.1 °F 91% 29.82 in 5.0 mi ENE 3.5 mph - N/A   Overcast
5:53 PM 72.0 °F 68.0 °F 87% 29.81 in 5.0 mi NE 4.6 mph - N/A   Overcast
6:53 PM 71.1 °F 68.0 °F 90% 29.80 in 6.0 mi Calm Calm - N/A   Overcast
7:13 PM 71.1 °F 68.0 °F 90% 29.83 in 4.0 mi Variable 3.5 mph - N/A   Overcast
7:53 PM 71.1 °F 68.0 °F 90% 29.85 in 5.0 mi Calm Calm - N/A   Overcast
8:53 PM 70.0 °F 68.0 °F 93% 29.84 in 5.0 mi SSE 5.8 mph - 0.00 in   Overcast
9:51 PM 69.8 °F 68.0 °F 94% 29.90 in 5.0 mi Calm Calm - 0.00 in   Overcast
9:53 PM 70.0 °F 68.0 °F 93% 29.89 in 5.0 mi Calm Calm - 0.00 in   Overcast
10:21 PM 70.0 °F 68.0 °F 93% 29.91 in 5.0 mi Calm Calm - N/A   Overcast
10:41 PM 70.0 °F 68.0 °F 93% 29.92 in 4.0 mi Calm Calm - N/A   Overcast
10:53 PM 70.0 °F 68.0 °F 93% 29.90 in 4.0 mi Calm Calm - N/A   Overcast
11:15 PM 71.1 °F 66.9 °F 87% 29.94 in 10.0 mi North 9.2 mph - N/A   Overcast
11:27 PM 70.0 °F 64.9 °F 84% 29.94 in 10.0 mi North 6.9 mph - N/A   Overcast
11:37 PM 69.1 °F 64.0 °F 84% 29.94 in 10.0 mi North 5.8 mph - N/A   Overcast
11:53 PM 69.1 °F 63.0 °F 81% 29.94 in 10.0 mi Variable 6.9 mph - N/A   Overcast